Flag for Hungary Weather past 2 weeks in Pécs, Hungary

36 °F

Passing clouds.

Feels Like: 29 °F
Forecast: 33 / 38 °F
Wind: 8 mph from North

Location: Pecs / Pogany

Current Time: Nov 28, 2015 at 12:39:09 AM

Latest Report: Nov 27, 2015 at 11:45 PM

Visibility: N/A

Pressure: 29.89 "Hg

Humidity: 75%

Dew point: 28 °F

Location of PécsLocation

Historic Weather in Pécs — Graph


Pécs temperature yesterday

Maximum temperature yesterday: 36 °F (at 11:15 AM)
Minimum temperature yesterday: 28 °F (at 7:45 AM)
Average temperature yesterday: 34 °F

Past Weeks' High & Low Weather Summary

High66 °F (Nov 16, 1:15 PM)93% (Nov 22, 7:45 AM)30.39 "Hg (Nov 22, 7:45 AM)
Low28 °F (Nov 27, 7:45 AM)32% (Nov 17, 12:15 PM)29.33 "Hg (Nov 21, 4:45 AM)
Average46 °F69%29.99 "Hg
* Reported Nov 12 10:45 PM — Nov 27 10:45 PM, Pécs, Weather by CustomWeather, © 2015

Note: Actual official high and low records may vary slightly from our data, if they occured in-between our weather recording intervals... More about our weather records


Pécs weather history for previous 24 hours

Time TempWeatherWind HumidityBarometerVisibility
10:45 PM
Fri, Nov 27
36 °FPassing clouds.7 mph75%29.92 "HgN/A
9:45 PM36 °FPassing clouds.7 mph81%29.92 "Hg5 mi
8:45 PM34 °FPassing clouds.6 mph87%29.95 "Hg5 mi
8:15 PM34 °FPassing clouds.6 mph87%29.95 "Hg5 mi
7:45 PM36 °FPassing clouds.6 mph81%29.92 "Hg5 mi
7:15 PM34 °FPassing clouds.6 mph87%29.95 "Hg5 mi
6:45 PM34 °FPassing clouds.8 mph87%29.95 "Hg5 mi
6:15 PM34 °FPassing clouds.7 mph87%29.95 "Hg5 mi
5:45 PM34 °FPassing clouds.8 mph87%29.95 "Hg5 mi
5:15 PM34 °FPassing clouds.7 mph87%29.95 "Hg5 mi
4:45 PM34 °FPassing clouds.9 mph87%29.95 "HgN/A
4:15 PM36 °FMostly cloudy.9 mph81%29.95 "HgN/A
3:45 PM36 °FMostly cloudy.9 mph81%29.98 "HgN/A
3:15 PM36 °FMostly cloudy.9 mph81%29.98 "HgN/A
2:45 PM36 °FMostly cloudy.7 mph81%29.98 "Hg5 mi
2:15 PM36 °FMore clouds than sun.6 mph81%29.98 "Hg5 mi
1:45 PM36 °FMore clouds than sun.8 mph81%29.98 "Hg5 mi
1:15 PM36 °FMore clouds than sun.8 mph75%29.98 "HgN/A
12:45 PM36 °FMore clouds than sun.5 mph75%29.98 "HgN/A
12:15 PM36 °FOvercast.6 mph75%29.98 "HgN/A
11:45 AM36 °FPartly sunny.8 mph75%29.98 "Hg5 mi
11:15 AM36 °FPartly sunny.5 mph70%30.01 "Hg5 mi
10:45 AM34 °FOvercast.3 mph75%30.01 "Hg5 mi
10:15 AM34 °FOvercast.5 mph75%30.01 "Hg5 mi
9:45 AM34 °FOvercast.2 mph75%30.01 "Hg5 mi
9:15 AM34 °FOvercast.3 mph75%30.01 "Hg4 mi
8:45 AM32 °FPartly sunny.3 mph80%30.01 "Hg4 mi
8:15 AM30 °FScattered clouds.2 mph80%30.01 "Hg4 mi
7:45 AM28 °FPassing clouds.3 mph86%30.01 "Hg4 mi
7:15 AM30 °FPassing clouds.3 mph80%29.98 "Hg4 mi
6:45 AM30 °FPassing clouds.5 mph80%29.98 "Hg4 mi
6:15 AM30 °FClear.5 mph80%29.98 "Hg10 mi
5:45 AM30 °FClear.7 mph80%29.98 "Hg10 mi
4:45 AM30 °FClear.6 mph80%29.98 "Hg10 mi
3:45 AM30 °FClear.7 mph86%30.01 "Hg10 mi
2:45 AM32 °FClear.5 mph80%29.98 "Hg10 mi
1:45 AM32 °FClear.5 mph80%29.98 "Hg10 mi
Weather by CustomWeather, © 2015

See weather overviewHow to use our weather pages